SKYSAT-C4 (41771 NORAD) Tracking and Keplerian Element Data

This shows tracking and keplerian element data for the satellite.

Feedback or suggestion? Click here.




ElementValue
Catalog41771
NameSKYSAT-C4
Epoch Orbit14441
Epoch Day113.20549078
Epoch Year2019
RAAN185.0917
Inclination97.4001
Eccentricity0.0001073
Argument of Perigee72.1788
Mean Anonmoly287.9388
Mean Motion15.23360295
Decay Rate1.607E-05
L11 41771U 16058B 19113.20549078 .00001607 00000-0 70592-4 0 9991
L22 41771 97.4001 185.0917 0001073 72.1788 287.9388 15.23360295144413

Live tracking and technical data element details for SKYSAT-C4 (NORAD 41771). SKYSAT-C4 can be tracked NOW for your location showing map with azimuth and elevation plus other details from your city location.

Track the satellite on the map from your city or location and see movement details for azimuth, elevation, latitude, longitude, range, height, and movement on the map or in text.







IsCatalogInMostPopularTable: catalog: 41771, numindb: 175
Update: records affected: 1



GetName: 41771 SKYSAT-C4

Hit Count: updated at: Thu, 25 Apr 2019 20:23:21 GMT